Location: Oteiza
(42.6167°N, 1.9500°W)
Time: 12:18:30
(UTC+02:00)

ISS - Visible Passes

Search period start: 22 October 2017 00:00
Search period end: 31 October 2017 23:00
Orbit: 401 x 408 km, 51.6° (Epoch: 22 October)

Date Brightness Start Highest point End Pass type
(mag) Time Alt. Az. Time Alt. Az. Time Alt. Az.
27 Oct -0.5 07:54:25 10° SSE 07:55:38 12° SE 07:56:51 10° ESE visible
29 Oct -1.6 06:44:10 10° SSW 06:46:57 26° SE 06:49:45 10° ENE visible
30 Oct -0.9 05:52:50 10° SSE 05:54:42 14° SE 05:56:34 10° E visible
31 Oct -3.4 06:35:08 10° SW 06:38:21 63° SE 06:41:35 10° ENE visible
